Location: Unspecified
(43.4354°N, 0.0000°E)
Time: 12:44:10
(UTC+00:00)

BEESAT - Visible Passes

Search period start: 22 July 2019 00:00
Search period end: 01 August 2019 00:00
Orbit: 700 x 710 km, 98.6° (Epoch: 21 July)

Date Brightness Start Highest point End Pass type
(mag) Time Alt. Az. Time Alt. Az. Time Alt. Az.
22 Jul ? 03:12:32 10° ESE 03:16:21 25° ENE 03:20:11 10° N visible
23 Jul ? 03:54:53 10° SSE 03:59:33 62° ENE 04:04:15 10° N visible
24 Jul ? 03:02:15 10° ESE 03:05:39 20° ENE 03:09:04 10° NNE visible
25 Jul ? 03:44:15 10° SE 03:48:47 48° ENE 03:53:21 10° N visible
26 Jul ? 02:52:07 10° E 02:54:58 16° ENE 02:57:49 10° NNE visible
27 Jul ? 03:33:41 10° SE 03:38:03 38° ENE 03:42:25 10° N visible
28 Jul ? 02:42:15 10° E 02:44:18 13° ENE 02:46:22 10° NNE visible
29 Jul ? 03:23:12 10° SE 03:27:18 30° ENE 03:31:25 10° N visible
30 Jul ? 04:05:51 10° SSE 04:10:34 77° ENE 04:15:20 10° N visible
31 Jul ? 03:12:49 10° ESE 03:16:35 24° ENE 03:20:22 10° NNE visible
